Stündliche Wetter Kyselytsi

Heute, 17 Januar, Sonntag

Zeit Temperatur Niederschläge Wind Luftdruck Luftfeuchtigkeit
00:00 -13°C° 0.1 mm 1 m/S 697 mmHg 100%
01:00 -12°C° 0.1 mm 1 m/S 697 mmHg 100%
02:00 -12°C° 0.1 mm 1 m/S 697 mmHg 100%
03:00 -14°C° 0 mm 2 m/S 697 mmHg 98%
04:00 -15°C° 0 mm 2 m/S 696 mmHg 94%
05:00 -15°C° 0 mm 2 m/S 696 mmHg 93%
06:00 -15°C° 0 mm 2 m/S 696 mmHg 94%
07:00 -15°C° 0 mm 2 m/S 696 mmHg 95%
08:00 -16°C° 0 mm 2 m/S 696 mmHg 95%
09:00 -16°C° 0 mm 2 m/S 696 mmHg 94%
10:00 -15°C° 0 mm 2 m/S 697 mmHg 94%
11:00 -11°C° 0 mm 1 m/S 697 mmHg 98%
12:00 -10°C° 0 mm 0 m/S 698 mmHg 99%
13:00 -8°C° 0 mm 0 m/S 698 mmHg 95%
14:00 -8°C° 0 mm 1 m/S 698 mmHg 93%
15:00 -8°C° 0 mm 1 m/S 698 mmHg 100%
16:00 -9°C° 0 mm 1 m/S 698 mmHg 100%
17:00 -10°C° 0 mm 1 m/S 698 mmHg 100%
18:00 -11°C° 0 mm 0 m/S 698 mmHg 100%
19:00 -11°C° 0 mm 0 m/S 698 mmHg 100%
20:00 -12°C° 0.1 mm 0 m/S 699 mmHg 100%
21:00 -12°C° 0.1 mm 1 m/S 699 mmHg 100%
22:00 -12°C° 0.1 mm 1 m/S 699 mmHg 100%
23:00 -12°C° 0.1 mm 1 m/S 699 mmHg 100%

Morgen, 18 Januar, Montag

Zeit Temperatur Niederschläge Wind Luftdruck Luftfeuchtigkeit
00:00 -12°C° 0.2 mm 1 m/S 699 mmHg 100%
01:00 -12°C° 0.2 mm 1 m/S 699 mmHg 100%
02:00 -12°C° 0.2 mm 1 m/S 699 mmHg 100%
03:00 -12°C° 0.2 mm 1 m/S 699 mmHg 100%
04:00 -12°C° 0.2 mm 1 m/S 699 mmHg 100%
05:00 -13°C° 0.2 mm 1 m/S 699 mmHg 100%
06:00 -15°C° 0.1 mm 2 m/S 699 mmHg 100%
07:00 -16°C° 0 mm 2 m/S 699 mmHg 100%
08:00 -15°C° 0 mm 1 m/S 699 mmHg 100%
09:00 -16°C° 0 mm 1 m/S 699 mmHg 100%
10:00 -15°C° 0 mm 0 m/S 699 mmHg 100%
11:00 -14°C° 0 mm 0 m/S 699 mmHg 100%
12:00 -13°C° 0 mm 1 m/S 700 mmHg 100%
13:00 -12°C° 0 mm 1 m/S 700 mmHg 100%
14:00 -11°C° 0 mm 1 m/S 700 mmHg 100%
15:00 -11°C° 0 mm 1 m/S 700 mmHg 100%
16:00 -12°C° 0 mm 1 m/S 700 mmHg 100%
17:00 -13°C° 0 mm 1 m/S 700 mmHg 100%
18:00 -13°C° 0 mm 1 m/S 700 mmHg 100%
19:00 -14°C° 0 mm 1 m/S 700 mmHg 100%
20:00 -17°C° 0 mm 2 m/S 700 mmHg 98%
21:00 -18°C° 0 mm 2 m/S 700 mmHg 94%
22:00 -18°C° 0 mm 2 m/S 700 mmHg 92%
23:00 -18°C° 0 mm 2 m/S 700 mmHg 89%

übermorgen, 19 Januar, Dienstag

Zeit Temperatur Niederschläge Wind Luftdruck Luftfeuchtigkeit
00:00 -17°C° 0 mm 2 m/S 700 mmHg 85%
01:00 -17°C° 0 mm 2 m/S 700 mmHg 83%
02:00 -17°C° 0 mm 2 m/S 700 mmHg 81%
03:00 -17°C° 0 mm 2 m/S 700 mmHg 80%
04:00 -17°C° 0 mm 2 m/S 700 mmHg 80%
05:00 -16°C° 0 mm 2 m/S 700 mmHg 81%
06:00 -16°C° 0 mm 2 m/S 700 mmHg 82%
07:00 -15°C° 0 mm 2 m/S 700 mmHg 83%
08:00 -15°C° 0 mm 2 m/S 701 mmHg 84%
09:00 -14°C° 0 mm 2 m/S 701 mmHg 83%
10:00 -12°C° 0 mm 2 m/S 701 mmHg 85%
11:00 -10°C° 0 mm 2 m/S 701 mmHg 92%
12:00 -9°C° 0 mm 3 m/S 701 mmHg 95%
13:00 -8°C° 0 mm 3 m/S 701 mmHg 95%
14:00 -7°C° 0 mm 3 m/S 701 mmHg 94%
15:00 -7°C° 0 mm 4 m/S 702 mmHg 92%
16:00 -8°C° 0 mm 5 m/S 701 mmHg 91%
17:00 -10°C° 0 mm 5 m/S 701 mmHg 91%
18:00 -9°C° 0 mm 4 m/S 701 mmHg 92%
19:00 -10°C° 0 mm 4 m/S 701 mmHg 93%
20:00 -10°C° 0 mm 4 m/S 702 mmHg 93%
21:00 -8°C° 0 mm 3 m/S 702 mmHg 93%
22:00 -7°C° 0 mm 2 m/S 701 mmHg 92%
23:00 -7°C° 0 mm 2 m/S 701 mmHg 92%

20 Januar, Mittwoch

Zeit Temperatur Niederschläge Wind Luftdruck Luftfeuchtigkeit
00:00 -6°C° 0 mm 2 m/S 701 mmHg 92%
01:00 -6°C° 0 mm 2 m/S 700 mmHg 90%
02:00 -6°C° 0 mm 2 m/S 700 mmHg 90%
03:00 -5°C° 0 mm 2 m/S 700 mmHg 90%
04:00 -5°C° 0 mm 2 m/S 699 mmHg 90%
05:00 -6°C° 0 mm 3 m/S 699 mmHg 91%
06:00 -6°C° 0 mm 3 m/S 699 mmHg 92%
07:00 -7°C° 0 mm 4 m/S 699 mmHg 92%
08:00 -5°C° 0 mm 4 m/S 699 mmHg 92%
09:00 -5°C° 0 mm 4 m/S 699 mmHg 92%
10:00 -5°C° 0 mm 5 m/S 699 mmHg 92%
11:00 -4°C° 0 mm 5 m/S 699 mmHg 92%
12:00 -2°C° 0 mm 5 m/S 700 mmHg 92%
13:00 -2°C° 0 mm 5 m/S 700 mmHg 91%
14:00 -2°C° 0 mm 5 m/S 700 mmHg 91%
15:00 -2°C° 0 mm 5 m/S 700 mmHg 92%
16:00 -2°C° 0 mm 5 m/S 700 mmHg 92%
17:00 -4°C° 0 mm 5 m/S 700 mmHg 92%
18:00 -4°C° 0 mm 4 m/S 701 mmHg 91%
19:00 -4°C° 0 mm 4 m/S 701 mmHg 92%
20:00 -4°C° 0 mm 3 m/S 701 mmHg 94%
21:00 -4°C° 0 mm 3 m/S 702 mmHg 94%
22:00 -5°C° 0 mm 3 m/S 701 mmHg 93%
23:00 -5°C° 0 mm 3 m/S 701 mmHg 93%

21 Januar, Donnerstag

Zeit Temperatur Niederschläge Wind Luftdruck Luftfeuchtigkeit
00:00 -5°C° 0 mm 3 m/S 701 mmHg 97%
01:00 -4°C° 0 mm 3 m/S 701 mmHg 98%
02:00 -4°C° 0 mm 3 m/S 701 mmHg 98%
03:00 -2°C° 0 mm 3 m/S 701 mmHg 95%
04:00 -1°C° 0 mm 3 m/S 701 mmHg 94%
05:00 -1°C° 0 mm 3 m/S 701 mmHg 94%
06:00 0°C° 0 mm 3 m/S 701 mmHg 93%
07:00 0°C° 0 mm 3 m/S 701 mmHg 93%
08:00 0°C° 0 mm 3 m/S 701 mmHg 91%
09:00 +1°C° 0 mm 3 m/S 701 mmHg 91%
10:00 +1°C° 0 mm 3 m/S 701 mmHg 91%
11:00 +3°C° 0 mm 3 m/S 701 mmHg 92%
12:00 +3°C° 0 mm 4 m/S 702 mmHg 95%
13:00 +2°C° 0 mm 5 m/S 701 mmHg 93%
14:00 +4°C° 0 mm 4 m/S 701 mmHg 92%
15:00 +3°C° 0 mm 4 m/S 701 mmHg 93%
16:00 +3°C° 0 mm 4 m/S 700 mmHg 90%
17:00 +4°C° 0 mm 2 m/S 701 mmHg 82%
18:00 +4°C° 0 mm 2 m/S 700 mmHg 77%
19:00 +2°C° 0 mm 3 m/S 700 mmHg 78%
20:00 +2°C° 0 mm 3 m/S 700 mmHg 81%
21:00 +3°C° 0 mm 3 m/S 700 mmHg 84%
22:00 +4°C° 0 mm 2 m/S 700 mmHg 86%
23:00 +4°C° 0 mm 2 m/S 700 mmHg 87%

22 Januar, Freitag

Zeit Temperatur Niederschläge Wind Luftdruck Luftfeuchtigkeit
00:00 +4°C° 0 mm 2 m/S 700 mmHg 87%
01:00 +4°C° 0 mm 2 m/S 699 mmHg 86%
02:00 +4°C° 0 mm 2 m/S 699 mmHg 86%
03:00 +3°C° 0 mm 3 m/S 699 mmHg 88%
04:00 +3°C° 0 mm 3 m/S 698 mmHg 91%
05:00 +2°C° 0 mm 3 m/S 698 mmHg 93%
06:00 +2°C° 0 mm 3 m/S 698 mmHg 94%
07:00 +2°C° 0 mm 3 m/S 698 mmHg 95%
08:00 +4°C° 0 mm 2 m/S 699 mmHg 94%
09:00 +4°C° 0 mm 2 m/S 699 mmHg 94%
10:00 +3°C° 0 mm 3 m/S 699 mmHg 96%
11:00 +4°C° 0 mm 3 m/S 698 mmHg 96%
12:00 +4°C° 0 mm 3 m/S 698 mmHg 95%
13:00 +5°C° 0 mm 3 m/S 698 mmHg 94%
14:00 +5°C° 0 mm 3 m/S 697 mmHg 95%
15:00 +6°C° 0 mm 2 m/S 697 mmHg 93%
16:00 +6°C° 0 mm 2 m/S 696 mmHg 90%
17:00 +3°C° 0 mm 6 m/S 696 mmHg 94%
18:00 +3°C° 0 mm 7 m/S 696 mmHg 96%
19:00 +3°C° 0 mm 5 m/S 696 mmHg 97%
20:00 +3°C° 0 mm 4 m/S 696 mmHg 97%
21:00 +3°C° 0 mm 4 m/S 696 mmHg 97%
22:00 +3°C° 0 mm 3 m/S 696 mmHg 97%
23:00 +3°C° 0 mm 3 m/S 695 mmHg 96%
Mehr zeigen

Wir brauchen deine Erlaubnis

Meteoprog und unser Service Anbieter werden persönliche Daten aufbewahren, so wie Cookies, Geräte Bezeichnung oder ähnliche Technologien von deinem Gerät und Prozess, so wie Persönliche Daten Inhalte und Werbungen, genauso wie social Media und den Verkehr zu analysieren.

  • Aufbewahrung und/oder Zugang zu deiner Geräte Informationen.

    Cookies, Geräte Bezeichnung oder andere Informationen, können aufbewahrt oder Zugang zu deinem Gerät erhalten, für den Grund, der oben angegeben wird.

  • Personalisierte Werbung und Inhalte, Messungen, Einblick in das Publikum und Produkt Entwicklung.

    Werbungen und Inhalte können personalisiert werden, basierend auf ein Profil. Mehr Daten können besser personalisierte Werbungen und Inhalte hinzufügen. Werbung und Inhalte können gezeigt und gemessen werden. Einblicke über das Publikum, welche die Werbung gesehen haben und den Inhalt, können abgeleitet werden. So wie Daten können genutzt werden, um es zu verbessern oder die Benutzer Erfahrung zu verbessern das System und die Software.

Wenn du “Ich stimme zu” klickst, erlaubst du uns, die Cookies zu benutzen die Geräte Bezeichnung, den Web oder ähnliche Technologien zu benutzen. Deine Settings, können in deinem Gerät bei deinem Browser geändert werden.

Für den bestimmten Zweck, berechtigten Interessen beruhen darauf, mehr als auf den Inhalt. Du kannst mehr darüber in unseren Privaten und Cookie Politik lesen.